Location: Unspecified
(0.0000°N, 0.0000°E)
Time: 16:59:05
(UTC+02:00)

JASON 3 - Pass Details

Date: 01 October 2021
Orbit: 1332 x 1343 km, 66.0° (Epoch: 27 October)

Event Time Altitude Azimuth Distance (km) Brightness Sun altitude
Rises 21:24:28 0° 313° (NW) 4,346 ? -23.7°
Reaches altitude 10° 21:27:56 10° 300° (WNW) 3,374 ? -24.6°
Maximum altitude 21:34:14 25° 249° (WSW) 2,435 ? -26.1°
Drops below altitude 10° 21:40:34 10° 198° (SSW) 3,374 ? -27.7°
Sets 21:44:05 0° 185° (S) 4,346 ? -28.6°
